Location: Unspecified
(0.0000°N, 0.0000°E)
Time: 23:07:43
(UTC+00:00)

ISS - Pass Details

Date: 24 April 2018
Orbit: 402 x 407 km, 51.6° (Epoch: 27 April)

Event Time Altitude Azimuth Distance (km) Brightness Sun altitude
Exits shadow 04:26:42 21° 149° (SSE) 959 -1.8 -22.3°
Maximum altitude 04:27:30 23° 126° (SE) 895 -1.7 -22.1°
Drops below altitude 10° 04:30:09 10° 70° (ENE) 1,444 0.1 -21.4°
Sets 04:32:29 0° 55° (NE) 2,299 1.2 -20.9°
